Regional Weather Roundup
Issued by NWS

Home | Current Version | Previous Version | Graphics & Text | Print | Product List | Glossary On
Versions: 1 2 3 4 5 6 7 8 9 10 11 12 13 14 15 16 17 18 19 20 21 22 23 24 25 26 27 28 29 30 31 32 33 34 35 36 37 38 39 40 41 42 43 44 45 46 47 48 49 50
795
ASUS45 KABQ 270401
RWRNM
NEW MEXICO REGIONAL WEATHER ROUNDUP
NATIONAL WEATHER SERVICE ALBUQUERQUE NM
1000 PM MDT THU MAY 26 2016

NOTE: "FAIR" MEANS FEW OR NO CLOUDS BELOW 12,000 FEET AGL WITH NO
       SIGNIFICANT WEATHER OR OBSTRUCTIONS TO VISION.

      THIS PRODUCT IS RELEASED AS TWO VERSIONS.  ONE VERSION NEAR
      THE TOP OF THE HOUR CONTAINING PRELIMINARY DATA FROM ALBUQUERQUE
      AND OTHER STATIONS.  A FINAL VERSION WITH ADDITIONAL DATA IS
      ISSUED ABOUT 10 MINUTES AFTER THE HOUR.

NMZ501-503-504-510>518-270500-
NORTHWEST PLATEAU/NORTHCENTRAL MOUNTAINS

CITY           SKY/WX    TMP DP  RH WIND       PRES   REMARKS
FARMINGTON     MOCLDY    57  28  33 W8        29.93R
SANTA FE       FAIR      53  20  27 NW13      29.94R
TAOS           MOCLDY    48  18  29 CALM      29.96S

$$
NMZ402-403-502-505>509-270500-
WESTCENTRAL MOUNTAINS/SOUTHWEST MOUNTAINS

CITY           SKY/WX    TMP DP  RH WIND       PRES   REMARKS
GALLUP         FAIR      51  30  44 NW8       30.03R
GRANTS         MOCLDY    50  20  30 NW13G22   30.02R
SILVER CITY      N/A     55  16  21 NW12      30.00R

$$
NMZ407-409-411-412-270500-
SOUTHERN DESERTS

CITY           SKY/WX    TMP DP  RH WIND       PRES   REMARKS
LORDSBURG      FAIR      63  19  19 W9        29.95R
DEMING         FAIR      66  16  14 NW8       29.92R
HOLLOMAN AFB   FAIR      67  13  12 W8        29.87R
ALAMOGORDO     FAIR      61  14  16 NE5       29.89R
T OR C         FAIR      64  13  13 W7        29.91R

$$
NMZ519>523-270500-
CENTRAL VALLEYS/CENTRAL HIGHLANDS

CITY           SKY/WX    TMP DP  RH WIND       PRES   REMARKS
ALBUQUERQUE    FAIR      61  20  20 N8        29.93R
DOUBLE EAGLE   PTCLDY    54  21  28 NW10      29.96R
CLINES CORNERS FAIR      49  16  26 NW16      29.96R
BELEN          FAIR      57  13  17 W8        29.94R
SOCORRO        NOT AVBL

$$
NMZ524>526-539-540-270500-
SOUTHCENTRAL MOUNTAINS

CITY           SKY/WX    TMP DP  RH WIND       PRES   REMARKS
RUIDOSO        NOT AVBL

$$
NMZ527>531-270500-
NORTHEAST HIGHLANDS/NORTHEAST PLAINS

CITY           SKY/WX    TMP DP  RH WIND       PRES   REMARKS
LAS VEGAS      FAIR      47  14  26 W9        29.93R
RATON          FAIR      50  26  39 N6        29.90R
CLAYTON        FAIR      57  36  45 NW14      29.81R

$$
NMZ532>537-270500-
EASTCENTRAL PLAINS

CITY           SKY/WX    TMP DP  RH WIND       PRES   REMARKS
TUCUMCARI      FAIR      62  18  18 W8        29.76R
CANNON AFB     FAIR      67  13  12 W12       29.79R
CLOVIS AIRPORT FAIR      63  18  17 W8        29.79R

$$
NMZ028-029-538-270500-
SOUTHEAST PLAINS

CITY           SKY/WX    TMP DP  RH WIND       PRES   REMARKS
ROSWELL        FAIR      69  14  12 W12       29.81R
ARTESIA        FAIR      68  16  13 W12       29.80R
CARLSBAD       FAIR      77  12   8 W21       29.74R
HOBBS          FAIR      72  18  13 W8        29.79R


$$




USA.gov is the U.S. government's official web portal to all federal, state and local government web resources and services.